Tracking 25620 objects as of 18-May-2022
HD Live streaming from Space Station
objects crossing your sky now

COSMOS 2251 DEB

Track COSMOS 2251 DEB now!
10-day predictions


NORAD ID: 38478
Int'l Code: 1993-036BTN
Perigee: 540.3 km
Apogee: 587.9 km
Inclination: 74.0 °
Period: 95.8 minutes
Semi major axis: 6935 km
RCS: 0.0048 m2 (small)
Launch date: June 16, 1993
Source: Commonwealth of Independent States (former USSR) (CIS)
Launch site: PLESETSK MISSILE AND SPACE COMPLEX (PKMTR)

Note: This is SATELLITE DEBRIS
aabbcc
Your satellite tracking list
Your tracking list is empty




NASA's NSSDC Master Catalog

Two Line Element Set (TLE):
1 38478U 93036BTN 22132.64294066  .00029346  00000-0  21343-2 0  9997
2 38478  74.0090 265.3863 0034327 349.4415  10.6048 15.03220447631629
Source of the keplerian elements: AFSPC